リニア-グラウアー彗星

P/2010 TO20 ( LINEAR-Grauer )

English version
Home page
Updated on February 21, 2012

---------------------------------------------------------------------

・ プロフィール

発見日 2010年10月1日、2011年10月19日
発見光度 19.4等、19.1等
発見者 Lincoln Laboratory Near-Earth Asteroid Research project, A. D. Grauer (Mount Lemmon)

・ 写真集

・ 軌道要素

Epoch 2012 Feb. 3.0 TT = JDT 2455960.5
T 2008 Oct. 23.61499 TT                                 MPC
q   5.1810169            (2000.0)            P               Q
n   0.07358793     Peri.  256.65013     +0.51135230     +0.85879258
a   5.6398166      Node    44.15015     -0.76990213     +0.47410724
e   0.0813501      Incl.    2.59445     -0.38179777     +0.19415877
P  13.4
From 50 observations 2010 Oct. 1-2011 Dec. 26, mean residual 0".6.

・ 光度変化

        m1 = 8.5 + 5 logΔ + 10.0 log r

---------------------------------------------------------------------

軌道要素はM.P.E.C. 2012-D09に掲載されたものです。
光度グラフはComet for Windowsで作成したものです。

---------------------------------------------------------------------

Copyright(C) Seiichi Yoshida (comet@aerith.net). All rights reserved.